Theta_e
322 321 320 318 318 318 317 317 316 315 314 313 312 311 310 309 308 308 308 307 307 307 306 307 307 307 307 307 306 306 305 305 305 305 304 304 304 303 303 302 302 302 301 301 300 300 300 299 299 298 298 298 297 297 297 297 297 297 296 296 296 296 296 295 295 295 295 295 295
321 320 319 318 318 317 316 315 314 314 313 313 312 311 310 309 309 308 308 308 307 307 307 307 307 307 306 306 306 305 305 304 304 304 304 303 303 303 302 301 301 301 301 300 300 299 299 299 298 298 298 298 297 297 297 297 298 297 296 296 296 296 296 295 295 295 295 295 295
320 319 318 317 316 315 314 313 313 312 312 312 311 311 310 309 309 308 308 307 308 308 308 307 307 307 307 306 306 305 305 304 304 303 303 302 302 302 301 301 301 300 300 300 300 299 299 299 298 298 297 297 297 296 296 297 297 297 296 295 295 295 295 295 295 295 295 295 295
318 318 316 316 315 314 313 312 312 311 311 310 310 310 309 309 308 308 308 308 308 307 307 307 306 306 306 306 305 304 304 304 303 302 302 301 301 301 301 301 300 300 300 300 300 299 299 298 298 298 297 297 296 296 296 296 297 296 296 296 296 295 295 295 295 295 295 295 295
317 316 316 315 314 313 312 312 311 310 310 309 309 308 308 308 308 307 307 307 307 307 307 307 306 306 305 305 304 304 303 303 303 302 301 301 301 301 301 300 300 300 300 300 299 299 299 298 298 297 297 297 297 296 296 296 296 296 296 296 296 295 295 295 295 295 295 294 294
315 315 314 314 313 313 312 311 311 310 309 308 308 307 307 307 307 307 307 306 307 307 307 307 306 305 305 304 304 303 303 302 302 302 301 301 301 300 300 300 300 299 299 299 299 299 299 298 297 297 297 297 297 297 297 297 296 296 296 295 295 295 295 295 295 295 295 294 294
314 313 313 312 312 311 311 311 311 310 309 308 307 307 307 307 307 307 306 306 306 306 306 306 305 305 304 303 303 302 302 302 302 301 301 300 300 300 300 299 299 299 299 299 299 299 299 298 297 297 296 297 296 297 297 297 296 296 295 295 295 295 295 295 295 295 295 294 294
313 312 312 311 311 311 310 310 310 309 308 307 307 307 307 307 307 307 306 306 306 305 305 305 304 304 303 303 302 302 301 301 301 301 301 300 300 299 299 299 299 299 299 299 299 298 298 298 297 297 296 296 296 296 296 297 296 296 295 295 295 295 296 296 297 296 295 295 294
311 311 311 311 310 310 310 310 309 309 308 307 307 307 307 307 307 306 306 305 305 305 305 304 304 304 303 303 302 302 301 301 300 300 300 300 300 299 299 299 298 298 298 299 299 298 298 298 297 297 297 296 296 296 297 297 296 296 296 295 295 295 295 296 296 296 295 295 295
310 310 310 310 310 310 310 310 310 309 308 307 307 307 307 308 307 306 306 305 305 305 304 304 304 303 303 302 302 301 301 301 300 300 300 300 299 299 298 298 298 298 298 298 298 298 298 297 297 297 297 297 297 297 297 297 296 296 295 295 295 295 295 295 295 295 295 295 295
310 309 309 309 309 309 310 309 309 308 308 307 307 307 307 307 307 306 306 306 305 304 304 304 303 303 302 302 302 301 301 301 300 300 299 299 299 299 298 298 298 298 298 298 298 298 298 297 297 297 297 297 297 297 297 297 296 296 295 295 295 295 295 294 295 295 294 294 294
310 309 309 309 309 309 309 309 308 308 307 307 307 307 307 306 306 306 306 305 304 304 304 304 304 303 302 302 302 301 301 300 300 300 299 299 298 298 298 298 298 298 298 298 299 298 298 298 297 297 297 297 297 297 297 297 297 296 295 295 295 295 295 295 294 295 294 294 294
310 309 309 309 309 308 308 308 307 307 307 306 306 306 306 306 306 306 306 305 304 304 304 304 304 303 302 302 301 301 301 300 300 299 299 298 298 298 298 298 298 298 298 299 299 299 298 298 297 297 297 297 297 297 297 297 296 296 295 295 295 294 294 294 295 295 295 294 294
310 309 309 308 308 308 307 307 307 307 306 306 306 306 306 306 306 306 305 304 304 304 303 303 303 303 303 302 301 301 300 300 299 299 298 298 298 298 298 298 298 298 299 299 299 299 298 298 298 297 297 297 297 297 297 296 296 295 295 295 294 294 294 294 295 295 295 294 294
309 309 308 308 307 307 306 306 306 306 306 306 306 306 306 305 305 305 305 304 304 303 303 302 302 302 302 302 301 301 300 299 299 299 298 298 298 298 298 298 298 299 299 299 299 299 299 298 298 298 297 297 297 296 296 296 296 296 295 295 294 294 294 295 295 295 294 293 293
309 308 308 307 306 306 306 306 305 305 305 305 305 305 305 305 305 305 304 304 304 303 302 302 301 302 302 301 301 300 299 299 298 298 298 298 298 298 298 298 298 299 299 300 299 298 298 298 298 298 298 297 297 296 296 296 296 296 296 296 296 295 295 295 295 294 294 293 293
309 308 307 306 306 305 305 305 305 305 305 305 305 305 305 304 304 304 304 304 303 302 302 301 301 301 301 301 300 300 299 299 298 298 298 298 298 298 298 298 298 299 300 301 299 299 298 298 298 298 298 297 297 297 296 296 296 296 297 296 296 296 296 295 294 293 293 293 293
308 307 306 305 305 304 304 304 304 304 304 305 305 305 304 304 303 303 304 304 303 302 301 301 301 300 300 300 299 299 299 298 298 298 298 298 298 298 298 298 298 299 300 303 300 299 298 297 297 297 297 297 297 297 297 297 297 297 296 296 296 296 295 295 294 293 292 292 292
307 306 305 304 304 303 304 304 304 304 304 305 304 304 304 303 303 303 303 303 303 302 301 300 300 300 299 299 299 299 298 298 298 298 298 298 298 298 299 299 299 299 300 303 301 299 298 297 296 296 296 297 297 297 297 297 297 296 296 296 296 295 295 295 294 294 293 293 293
305 305 304 303 303 303 303 304 304 304 304 304 304 303 303 302 302 302 302 302 302 302 301 300 300 299 299 299 298 298 298 298 298 298 298 298 299 299 299 299 299 299 299 302 300 299 297 296 296 296 297 298 297 297 297 297 296 296 295 295 295 295 295 294 294 294 294 294 294
304 304 303 303 303 303 303 304 304 304 304 304 303 303 302 302 302 302 302 302 301 301 301 300 299 299 299 298 298 298 298 298 298 298 298 298 299 299 299 299 298 298 298 301 299 298 297 296 296 296 296 295 295 295 296 296 295 295 295 294 294 294 294 294 294 294 294 294 294
304 303 303 302 303 303 303 304 304 304 304 303 303 302 302 301 301 301 301 301 301 301 300 300 300 299 299 299 298 298 298 298 298 298 298 298 299 299 299 298 298 297 297 300 298 297 296 296 296 294 291 290 290 292 294 294 294 294 293 293 293 293 293 292 293 294 294 294 294
303 303 302 302 303 303 304 304 304 304 303 302 302 302 301 301 301 301 301 301 300 300 300 300 299 299 299 299 299 298 298 298 298 298 298 298 298 298 298 298 297 297 297 299 296 294 293 294 291 289 287 287 288 290 292 293 293 292 292 292 292 291 291 290 292 293 293 293 294
303 302 302 302 303 303 303 304 303 303 302 301 301 301 300 300 300 300 300 300 299 299 299 299 299 299 299 299 299 298 298 298 298 298 298 298 297 297 297 297 297 296 297 298 297 295 293 292 289 287 287 286 288 290 291 291 291 291 291 291 291 290 290 290 291 292 292 293 293
302 302 302 302 303 303 303 303 302 301 301 301 300 300 300 299 299 299 299 299 299 299 299 299 299 299 299 299 299 299 298 298 298 297 297 296 296 296 296 296 296 296 296 297 297 298 297 295 293 290 288 287 289 290 290 291 291 291 291 291 291 291 291 291 292 293 293 293 293
303 302 302 302 302 302 302 301 301 301 300 300 300 300 299 299 299 299 298 298 298 298 298 298 298 299 299 299 299 298 298 298 297 297 296 296 296 296 295 295 296 295 294 296 297 298 298 298 297 294 291 289 290 291 291 291 291 292 292 292 292 292 293 292 293 293 294 294 294
302 302 302 301 301 301 301 300 300 300 300 300 299 299 299 299 298 298 298 298 298 298 298 298 298 298 298 298 298 297 297 297 297 296 296 296 295 295 295 295 297 295 293 294 297 298 298 298 298 297 296 293 293 292 292 292 292 293 294 294 294 294 294 293 293 293 294 294 294
302 301 301 301 300 300 300 300 299 300 299 299 299 299 299 299 298 298 297 297 297 297 298 298 298 298 298 297 297 296 296 296 296 296 296 296 295 295 295 295 296 297 297 298 298 298 298 298 298 298 297 296 295 294 294 293 293 293 294 294 294 294 294 294 294 294 294 294 294
301 300 300 300 299 299 299 299 299 299 299 299 299 299 299 298 298 297 297 297 297 297 297 297 298 297 297 296 296 296 296 296 296 296 296 296 296 295 295 295 295 296 297 298 298 298 298 298 298 298 297 297 296 295 294 294 294 294 294 294 294 294 294 294 294 294 294 294 294
300 300 299 299 299 299 299 299 299 299 299 299 299 298 298 298 298 297 297 297 297 297 298 298 297 296 296 296 296 296 296 296 296 296 296 295 295 295 295 295 295 295 296 298 298 298 298 298 298 298 298 297 296 295 294 294 294 294 294 293 293 293 293 293 293 294 294 293 293
299 299 299 299 299 299 299 299 300 299 299 299 298 298 298 297 297 297 297 297 297 298 298 298 297 296 296 296 296 295 295 295 296 296 295 295 295 295 295 295 295 295 295 298 298 298 298 298 298 298 298 298 296 295 295 294 294 294 293 293 293 293 293 293 293 293 293 293 293
299 299 299 299 299 299 300 299 299 299 298 298 298 298 297 297 297 298 298 298 298 298 297 297 296 296 296 295 295 295 295 295 295 295 295 295 295 295 295 294 295 294 295 297 297 298 297 298 298 298 297 298 296 295 295 294 294 294 293 294 294 293 294 293 293 293 293 293 293
300 300 299 299 299 299 299 299 299 298 298 298 298 297 297 298 298 298 298 298 298 297 296 296 295 295 295 295 295 294 295 295 295 295 295 295 295 294 294 294 294 295 296 297 297 297 298 298 297 298 297 297 296 295 294 294 294 293 293 294 294 294 294 294 294 293 293 293 293
299 299 299 300 299 299 299 298 298 298 298 297 297 298 298 298 298 298 298 298 297 296 296 295 295 295 295 295 294 294 294 295 295 295 295 295 294 294 294 294 294 295 296 297 297 297 297 297 298 297 297 297 296 295 294 294 294 293 293 293 293 294 294 294 294 293 294 294 294
299 299 299 300 299 299 298 298 298 298 297 297 297 297 298 298 298 297 297 297 296 296 295 295 295 295 295 295 294 294 294 294 294 294 294 294 294 293 293 293 294 295 296 297 297 297 297 297 297 297 297 296 295 294 294 293 293 293 293 293 293 293 293 293 293 293 293 293 294
299 299 299 299 299 298 298 298 297 297 297 297 297 297 297 297 297 297 297 297 296 295 294 294 294 294 294 293 293 293 293 293 293 293 293 293 293 293 293 293 293 295 296 297 297 297 297 297 297 297 296 296 294 294 293 293 292 292 292 292 292 292 293 293 293 292 291 291 292
299 299 299 299 298 298 298 298 297 297 297 297 297 297 297 297 297 297 297 296 295 294 294 293 293 293 293 293 293 293 293 293 293 293 292 293 292 292 292 293 293 294 295 297 297 297 297 297 297 297 296 295 294 293 293 292 292 292 291 291 291 292 292 292 292 292 291 289 290
299 299 299 299 298 298 298 298 297 297 297 297 297 297 297 297 297 297 296 296 294 293 293 293 293 293 293 293 293 293 293 293 293 293 293 293 293 293 293 292 293 294 295 296 297 297 297 297 297 296 296 294 293 293 292 292 291 291 291 291 291 291 292 292 292 292 292 290 292
299 299 299 299 298 298 298 297 297 297 297 297 298 298 297 297 296 296 296 295 293 293 292 292 292 293 293 294 293 293 293 293 294 293 293 293 293 293 293 293 293 293 294 296 296 296 296 296 296 296 296 294 293 292 292 291 291 290 290 290 290 291 291 292 292 292 292 292 294
299 300 299 299 299 298 298 298 297 298 298 298 297 297 296 296 296 295 295 294 293 293 292 292 292 293 293 294 293 293 293 293 294 294 293 293 293 294 294 293 293 293 294 295 296 296 296 296 296 296 296 294 293 292 292 291 290 290 290 290 290 290 290 290 291 291 292 292 293
299 299 299 299 299 298 298 297 297 298 298 297 296 296 296 295 295 294 294 293 293 293 292 292 293 293 293 293 293 293 292 292 293 293 293 293 293 294 294 293 293 293 293 294 295 295 296 296 296 296 295 294 293 292 292 291 290 289 289 289 289 289 289 290 290 290 291 291 292
Wind_Speed
10 8 7 7 6 6 5 5 5 5 5 6 6 6 6 6 7 6 6 6 6 6 6 6 6 6 7 10 10 10 9 9 9 9 8 8 7 7 7 7 6 6 6 6 5 5 4 4 3 2 2 2 2 2 2 2 3 3 4 4 4 4 5 5 5 6 6 7 5
11 9 8 7 7 6 5 5 5 5 5 5 5 6 6 6 6 6 6 6 6 5 5 5 6 7 8 10 10 10 10 9 10 9 8 8 8 8 7 7 7 6 6 6 6 5 4 4 3 3 2 2 2 3 3 3 3 3 4 5 4 4 4 4 5 6 6 6 5
10 9 8 8 7 6 5 5 5 6 6 5 5 5 6 6 5 6 6 6 6 6 5 5 6 8 9 10 10 9 9 9 9 9 8 8 8 8 8 7 7 7 6 6 5 5 4 4 3 3 2 2 3 3 3 3 3 4 4 5 4 3 3 3 4 5 5 4 5
10 9 8 8 9 8 7 6 7 7 7 5 5 5 5 5 5 5 5 6 6 6 5 6 6 8 9 9 9 9 9 9 9 9 8 8 8 8 8 7 7 7 7 6 6 5 5 4 3 3 3 3 4 4 3 3 3 3 3 3 3 3 3 3 4 4 4 4 4
9 9 8 8 9 9 8 6 7 7 7 5 5 5 5 5 4 4 5 6 6 6 6 7 7 7 8 9 10 10 9 10 9 9 8 8 8 8 8 8 8 7 7 6 6 6 5 5 3 3 3 3 3 3 3 4 4 4 3 3 3 3 3 4 4 4 4 4 4
8 8 7 7 8 8 7 6 8 8 7 6 6 6 6 5 5 5 6 6 6 7 8 8 7 8 8 9 10 10 9 9 8 8 8 8 8 8 8 8 8 7 7 6 6 6 5 5 3 3 3 3 3 4 4 5 4 4 4 3 3 3 4 4 4 4 4 4 5
8 7 7 7 8 7 7 7 8 7 7 6 8 9 9 8 7 8 8 7 6 7 7 7 7 8 9 9 9 9 9 8 8 8 8 8 8 8 8 8 8 7 7 7 7 6 6 5 4 3 3 3 3 4 5 5 4 4 4 4 4 4 4 4 4 4 4 6 6
8 8 7 7 8 8 8 8 8 8 7 7 9 10 11 10 10 10 9 7 7 6 7 6 8 9 9 9 9 9 9 9 9 8 8 8 8 8 8 8 8 8 7 7 7 6 6 5 4 4 4 3 3 4 5 5 5 5 5 5 5 4 4 4 3 4 5 6 7
8 8 8 8 8 8 8 9 9 8 8 8 9 11 11 11 11 10 9 7 7 7 7 6 8 10 10 10 10 9 9 9 9 9 8 8 8 9 8 8 8 8 7 7 7 7 7 5 4 4 4 4 4 4 5 5 6 6 6 6 5 5 5 5 5 5 6 6 7
8 8 8 8 8 8 8 8 9 9 9 9 10 11 11 10 10 10 8 7 7 7 7 7 9 10 10 10 10 9 9 8 8 9 8 8 8 9 8 8 8 8 7 7 7 7 7 6 5 5 5 5 5 5 6 6 6 7 6 5 6 6 7 7 7 7 7 6 7
9 9 9 8 9 8 8 8 8 8 9 9 10 10 10 10 10 9 8 7 7 8 9 8 9 10 10 9 9 9 8 8 8 8 8 8 8 9 9 8 8 8 8 8 7 6 6 5 6 6 6 6 6 6 6 6 7 7 7 6 7 8 8 8 8 7 7 7 7
10 9 9 9 9 9 8 8 8 8 8 9 10 10 10 9 9 9 8 8 9 9 9 9 9 9 9 8 8 8 8 8 8 8 8 8 9 9 9 8 9 9 8 8 7 6 5 6 6 7 7 7 6 5 6 6 7 8 8 8 8 8 9 9 8 7 7 7 7
10 9 9 9 9 9 9 8 7 7 8 9 9 9 9 8 9 9 9 9 9 8 8 8 8 8 8 8 8 8 8 8 8 8 8 8 8 9 9 9 9 9 8 8 7 6 6 6 7 7 8 8 6 6 6 7 7 8 8 9 9 9 9 9 8 7 7 8 8
10 10 10 10 10 9 9 8 7 7 8 9 9 9 8 8 9 9 9 9 9 8 8 8 8 7 7 8 8 8 8 8 8 8 8 8 8 8 9 8 9 8 8 7 7 7 7 7 7 7 8 8 8 8 7 7 8 8 9 9 10 10 9 9 8 7 7 8 8
11 11 10 10 10 9 8 8 7 7 8 9 9 8 8 8 8 8 8 8 8 8 7 7 7 7 7 8 8 8 8 8 8 8 8 8 9 9 9 8 9 8 8 7 7 8 8 8 7 7 8 8 8 8 8 8 8 8 8 9 9 9 9 8 7 7 8 9 8
11 11 10 10 10 9 9 8 7 7 8 8 8 8 8 7 7 8 8 8 8 7 7 7 7 7 7 7 8 8 8 8 8 8 8 8 9 9 9 9 9 9 8 8 8 8 8 7 7 7 8 8 8 8 8 8 8 8 8 8 8 8 8 8 8 8 9 9 9
11 11 11 10 10 10 9 8 7 7 7 8 8 8 8 7 7 7 8 8 7 7 7 8 7 7 7 7 7 7 7 7 8 8 8 8 9 9 9 9 9 9 8 7 8 8 8 8 7 8 8 8 8 8 8 8 7 7 7 8 8 7 8 9 10 10 11 11 11
11 11 10 10 10 10 10 9 8 7 8 8 8 8 7 7 7 7 7 8 8 8 8 9 8 7 7 7 7 6 6 7 7 7 8 8 8 8 9 9 9 8 7 6 7 8 8 8 8 8 8 8 8 7 7 7 7 7 8 8 8 8 8 10 10 11 11 11 11
11 10 10 10 10 10 10 9 9 8 8 9 8 8 7 7 8 7 7 7 8 8 9 9 8 7 7 8 7 6 6 6 7 7 8 7 8 8 8 8 8 8 7 5 6 7 8 8 8 9 8 8 7 7 7 7 7 7 8 8 8 8 9 9 10 10 10 10 11
10 10 9 10 10 10 10 10 9 9 9 8 8 8 8 8 8 8 8 8 7 8 8 8 8 8 8 8 8 7 7 6 7 7 8 7 7 8 8 8 8 7 6 5 6 7 8 8 9 9 8 7 7 7 7 7 7 8 8 8 8 9 9 10 10 10 10 10 10
9 9 9 9 9 9 9 9 9 9 9 8 8 8 8 8 8 8 8 7 7 7 7 8 8 8 8 8 8 8 7 6 6 7 7 8 8 8 8 7 7 7 6 5 6 7 8 8 8 8 7 6 6 6 7 7 7 8 8 8 8 9 10 10 10 10 11 11 11
8 8 8 8 9 9 9 9 9 9 8 8 8 8 8 8 8 8 7 7 7 7 7 7 7 7 7 7 7 7 7 6 6 7 7 7 7 7 7 7 7 7 6 5 6 6 7 8 7 6 5 5 5 6 7 7 7 8 9 9 10 10 10 10 10 11 11 11 11
8 7 7 8 8 9 9 9 9 8 8 8 8 8 8 8 8 7 7 7 6 7 7 6 6 7 7 7 7 7 7 6 7 7 7 7 7 7 7 7 7 7 6 5 5 5 5 6 6 5 4 4 5 6 7 8 8 9 9 10 11 10 10 9 10 10 11 11 11
7 7 7 6 8 9 9 9 8 8 8 8 8 8 8 8 8 7 7 7 7 7 6 6 5 6 6 6 7 7 7 7 7 7 8 8 7 7 7 7 7 7 6 5 6 6 6 5 5 5 5 5 5 6 8 9 9 10 10 11 11 11 10 10 11 11 11 12 12
7 7 7 7 8 9 9 8 8 8 8 8 8 8 8 8 8 7 7 7 7 7 6 6 6 5 6 6 6 7 7 8 8 8 8 8 8 8 8 7 7 6 6 6 8 10 11 9 7 6 5 5 6 7 9 10 11 11 12 12 12 11 11 11 12 12 12 12 12
7 7 8 8 8 9 8 8 8 8 8 8 8 8 8 8 8 7 7 7 7 7 6 6 6 5 5 5 6 7 7 7 7 8 8 8 9 9 8 7 7 6 5 7 10 13 14 14 12 9 7 5 7 8 9 10 11 12 12 12 12 11 11 11 12 12 13 12 12
6 7 7 7 8 8 8 8 8 8 8 8 8 8 8 8 7 7 7 7 7 6 6 6 5 5 5 5 6 7 7 7 7 8 8 9 9 9 9 8 7 5 5 7 11 13 14 15 15 14 10 7 7 8 9 9 10 11 11 11 11 10 11 11 11 12 13 13 12
6 7 7 7 8 8 8 8 8 8 8 8 8 8 8 8 7 7 7 7 6 6 5 5 5 5 4 4 6 7 8 8 7 8 8 9 9 9 9 8 7 5 6 9 12 13 15 15 16 16 14 11 10 9 10 10 10 10 10 10 10 11 11 11 11 12 13 13 12
7 7 7 8 8 8 8 8 9 9 9 9 8 8 7 7 7 7 7 7 7 6 5 5 4 4 4 5 6 7 8 8 8 8 8 9 9 10 9 9 8 7 8 11 13 14 15 16 16 17 17 15 11 9 8 9 9 9 9 9 9 10 10 10 10 10 11 12 12
6 7 7 7 8 8 8 9 9 9 9 8 8 8 7 7 7 7 7 7 7 6 5 4 4 5 5 6 6 7 7 8 8 8 8 9 10 10 10 10 8 8 9 12 14 15 16 16 17 17 17 17 14 11 9 9 9 9 9 9 10 10 11 11 11 11 11 11 11
6 6 6 7 8 8 8 8 8 8 8 8 8 8 7 7 7 6 6 6 6 6 5 5 6 6 7 7 7 7 8 7 7 7 8 9 10 10 10 10 10 9 9 12 14 16 17 17 17 18 18 17 15 12 10 10 10 10 10 9 10 11 11 11 11 12 12 12 12
6 6 7 7 8 8 8 8 8 8 8 8 8 7 7 6 6 6 6 5 5 5 6 6 7 7 8 8 8 8 8 8 8 8 8 8 9 10 10 11 10 10 10 13 15 16 17 18 18 18 18 18 15 13 11 11 11 11 11 12 12 12 12 11 11 12 13 14 13
6 7 7 8 8 8 8 8 8 8 8 8 7 7 6 6 5 5 5 5 5 5 6 6 7 7 8 8 9 9 9 9 9 9 9 9 10 10 11 11 10 11 12 14 16 17 17 18 18 18 18 17 15 13 12 12 11 11 11 11 12 12 12 13 12 12 13 14 13
7 7 7 8 8 8 8 8 7 7 7 7 6 6 5 5 5 5 5 4 4 5 5 6 7 7 8 8 9 9 9 8 8 9 9 10 10 11 11 11 9 10 12 15 16 17 17 18 18 18 17 17 14 12 11 12 12 11 11 12 12 12 12 12 12 12 12 13 13
7 8 8 8 8 8 8 7 7 7 6 6 5 5 5 4 4 4 5 4 4 5 5 6 7 7 7 8 8 8 9 9 9 10 10 10 11 12 13 12 11 12 14 16 17 17 17 17 18 18 17 15 12 10 11 12 12 12 13 13 13 13 13 13 12 11 11 11 12
8 8 8 8 8 8 7 7 7 6 5 5 4 4 4 4 4 4 4 4 5 5 6 6 6 7 7 8 8 8 9 10 11 11 11 11 12 13 14 14 13 14 15 16 17 17 17 17 18 17 16 13 10 9 10 10 11 11 13 13 13 13 13 13 12 11 10 9 10
8 8 8 8 8 7 7 6 6 5 5 4 4 4 4 4 5 4 4 4 4 5 6 6 7 7 8 8 8 9 9 10 11 12 12 13 13 14 14 14 14 14 14 15 16 17 17 17 18 17 15 12 10 9 9 9 9 10 11 12 13 13 13 12 12 11 9 8 9
7 7 7 7 7 7 6 5 5 4 4 4 4 4 4 4 4 4 3 3 4 5 6 7 7 8 8 9 9 10 10 11 12 12 13 14 14 14 14 15 14 13 13 14 15 16 17 17 18 17 15 11 10 9 9 8 8 9 10 10 11 11 11 10 9 9 9 9 10
7 7 7 6 6 6 5 4 4 3 3 3 3 3 3 3 3 3 3 3 4 6 7 8 8 9 9 9 9 10 11 12 12 13 13 14 14 14 14 14 14 13 13 14 15 16 17 17 18 17 16 13 11 9 8 8 9 9 10 10 10 10 10 10 9 9 9 10 13
6 5 5 5 5 4 4 3 3 2 2 2 3 3 3 3 3 3 3 4 5 6 7 8 9 10 10 10 10 11 12 12 12 12 13 13 14 14 14 15 14 14 14 15 16 17 18 18 18 18 17 13 11 9 8 7 8 9 9 9 9 9 9 9 9 8 8 9 12
5 5 4 4 4 3 2 1 1 1 1 2 2 3 3 3 3 4 4 5 6 7 7 8 9 10 10 10 10 11 12 13 13 13 13 13 14 14 14 14 15 15 15 15 16 18 18 19 19 19 17 13 10 8 7 7 8 9 10 10 9 9 9 9 8 8 8 9 9
Wind_Direction
191 184 176 174 175 176 176 175 169 166 167 171 171 170 169 170 174 177 179 179 181 183 183 181 182 179 176 173 174 175 174 172 173 174 176 177 174 172 171 170 170 172 174 175 174 177 181 184 180 181 192 213 240 251 252 248 252 260 266 268 269 270 271 272 273 274 274 273 271
191 185 178 175 173 171 168 166 163 162 164 168 167 166 167 171 175 178 179 180 181 180 178 177 178 174 172 172 173 173 172 171 171 173 175 176 173 171 171 172 174 176 178 179 179 181 183 185 186 189 199 213 235 246 246 234 237 247 258 264 267 269 270 271 272 274 275 276 274
191 186 180 177 174 171 167 166 164 165 166 166 164 165 167 172 176 177 178 180 179 176 172 172 172 170 169 170 171 171 171 170 170 171 173 175 173 173 173 175 177 179 181 181 183 185 187 187 190 196 207 219 233 242 244 239 233 241 251 261 265 268 268 267 269 270 272 271 269
192 187 182 181 179 176 173 169 167 167 166 163 163 165 168 173 174 174 175 178 177 175 172 170 168 167 167 168 169 169 168 169 169 171 173 174 174 175 176 178 179 181 183 184 187 190 193 191 192 201 216 230 241 246 249 248 244 245 249 255 261 264 264 263 265 265 265 264 265
193 190 186 184 183 179 174 170 169 168 166 161 163 167 171 175 174 172 173 177 178 176 172 169 166 165 165 167 166 166 166 168 169 171 174 175 176 177 178 181 183 183 184 186 189 193 197 198 198 207 220 233 242 248 252 252 251 251 252 251 252 253 255 257 258 258 258 259 259
194 191 187 183 182 179 174 172 172 170 166 164 169 173 176 177 176 176 178 180 178 173 169 167 163 163 163 165 165 164 165 168 170 173 175 175 176 178 181 184 185 185 185 187 190 194 199 204 207 215 223 232 236 240 244 246 249 250 252 252 249 249 249 250 252 254 255 257 258
192 190 186 182 181 178 174 174 175 173 169 169 177 181 183 182 181 181 180 178 173 169 167 166 164 163 164 165 165 165 165 168 171 175 177 177 178 180 183 186 187 188 188 189 191 194 199 206 213 221 226 230 234 236 236 238 242 246 249 253 253 253 253 254 254 255 257 259 261
190 190 187 184 183 180 178 178 178 176 174 176 184 187 187 185 184 182 180 174 170 168 167 166 167 166 166 167 167 167 167 169 172 176 179 179 180 182 184 186 189 191 192 192 195 198 201 205 214 223 228 232 235 237 237 236 239 244 249 254 258 258 255 252 248 248 250 255 257
188 189 187 185 184 183 182 181 182 180 179 181 187 189 189 186 184 182 178 173 170 167 167 168 169 168 168 168 168 168 169 171 174 177 180 181 182 183 185 188 192 194 195 196 200 204 206 209 216 223 229 233 236 238 238 238 240 244 248 253 257 258 257 254 248 246 246 248 250
187 186 185 185 185 184 183 183 185 183 182 183 188 190 188 184 183 181 178 170 166 167 169 171 170 170 170 171 170 170 170 172 175 178 181 183 185 185 187 189 194 196 198 199 203 207 211 214 219 225 229 234 238 240 241 240 242 244 246 250 254 258 259 259 256 254 252 251 250
187 186 185 185 184 183 182 182 184 184 183 185 188 189 187 182 182 180 174 164 166 170 173 173 172 172 172 172 172 171 171 172 175 178 181 184 187 189 190 192 196 199 201 201 203 207 212 216 223 228 232 237 240 242 242 241 243 244 246 249 253 256 258 260 259 258 257 256 254
189 186 185 183 181 179 180 181 183 184 185 187 189 188 185 181 181 177 171 165 170 173 174 173 174 173 173 172 172 172 171 173 176 178 181 186 190 193 195 196 200 204 206 205 205 207 212 218 224 231 236 240 241 242 241 240 242 244 247 250 252 254 256 258 258 258 257 257 256
190 187 184 182 178 177 179 181 182 184 186 188 189 187 183 180 180 177 172 170 173 173 172 172 175 175 174 172 172 172 172 174 178 180 184 188 192 195 198 201 204 208 211 210 208 209 213 219 225 231 237 241 243 243 242 241 241 244 246 250 251 253 254 255 255 255 255 256 256
191 187 184 180 177 177 179 182 182 184 187 189 189 186 182 179 180 177 174 174 175 172 169 169 174 176 176 173 172 172 173 175 179 183 187 191 194 198 201 204 207 211 213 214 213 214 216 221 225 231 237 242 245 246 246 245 244 245 247 250 252 254 255 256 255 255 255 255 256
192 188 183 179 177 177 180 183 183 185 187 189 188 185 181 179 179 177 176 176 174 169 166 169 174 176 177 174 174 174 174 177 181 186 191 195 198 201 203 207 210 212 214 217 218 218 220 222 226 231 236 242 245 247 248 248 247 247 247 249 252 255 257 259 259 258 257 256 256
194 189 183 179 178 179 181 184 185 187 188 189 186 183 180 178 176 175 176 176 172 168 167 171 173 174 174 175 175 175 176 179 185 190 195 199 202 204 207 210 213 214 215 216 219 221 222 223 226 230 235 240 244 246 248 248 248 248 248 248 250 253 255 258 259 258 257 255 254
195 189 184 180 180 181 183 185 186 187 187 187 183 182 179 175 171 173 176 177 173 170 170 173 172 171 171 173 175 177 179 183 188 194 198 203 206 208 211 213 216 216 215 213 218 222 224 226 228 231 233 237 240 242 245 247 247 247 247 248 248 250 252 254 256 256 256 255 253
195 189 183 180 181 182 184 186 185 186 185 184 181 179 176 170 169 172 176 178 174 171 171 172 171 171 171 173 176 179 183 187 193 198 202 206 210 213 216 217 220 219 215 208 214 221 226 230 233 235 235 235 235 236 238 241 243 245 246 247 247 248 249 251 253 254 255 255 255
194 187 181 180 182 183 185 186 186 185 184 181 178 174 172 169 169 171 175 177 174 172 171 171 171 172 174 175 178 182 188 192 198 202 206 209 214 218 220 221 223 221 215 202 210 219 227 234 238 240 240 239 234 232 231 233 237 240 243 245 246 247 247 248 249 250 252 253 254
191 185 181 181 181 183 185 187 186 185 183 179 174 171 170 169 170 171 174 176 173 171 170 171 172 175 178 180 182 187 192 197 202 206 210 213 216 220 223 223 226 224 217 199 207 217 227 235 240 243 244 242 236 233 230 231 234 238 241 244 245 246 247 247 246 246 247 247 250
190 185 181 180 181 183 185 186 186 184 181 175 172 169 168 168 170 171 172 171 168 169 171 173 176 179 182 185 188 191 195 199 206 210 214 217 219 221 222 223 227 227 221 200 206 216 225 234 239 243 243 240 235 233 232 233 236 240 242 245 246 247 247 246 245 244 244 244 245
187 181 177 177 180 182 184 185 184 182 177 171 168 166 165 166 168 168 166 163 165 169 174 178 182 184 187 189 193 195 198 202 208 213 217 219 220 220 221 221 225 228 225 208 206 213 222 231 237 240 240 235 231 231 233 236 240 244 247 249 249 249 248 245 244 244 244 243 243
182 176 173 174 178 180 182 182 180 177 172 166 163 162 163 164 165 162 159 159 166 173 179 183 187 190 193 195 198 200 204 208 212 216 219 222 222 222 221 220 224 227 227 217 206 206 215 228 235 238 237 232 232 234 237 240 243 246 249 251 252 250 248 245 243 243 243 243 244
176 171 170 171 176 178 178 176 173 170 167 163 161 161 162 162 161 159 159 163 171 178 184 188 192 195 198 201 204 207 210 213 216 219 221 223 223 223 223 224 225 227 227 223 210 206 208 218 226 231 232 229 233 239 242 244 245 246 247 249 250 249 246 243 242 241 242 243 244
171 168 168 169 174 174 172 167 166 165 164 161 160 160 160 160 160 161 163 169 176 182 188 193 196 199 202 206 210 214 216 219 221 223 224 225 225 225 225 227 227 227 226 224 220 219 219 221 221 219 217 219 230 238 242 244 245 245 246 247 247 246 243 241 239 238 238 239 240
167 166 166 168 168 166 164 162 162 162 160 157 157 158 159 160 161 163 167 173 180 186 191 197 200 203 207 211 215 218 221 224 226 227 228 229 229 229 228 229 230 228 224 223 225 227 229 232 233 228 218 207 224 236 243 246 246 246 247 248 248 247 245 243 243 242 241 239 237
163 161 162 162 161 160 159 159 159 158 157 155 156 158 159 160 162 166 172 178 184 188 194 200 205 208 211 215 219 222 224 226 228 230 232 234 235 235 235 235 234 228 218 217 225 231 236 240 244 243 236 220 227 236 245 251 252 251 250 250 250 249 248 249 250 251 251 250 245
159 157 156 156 158 158 158 158 160 160 159 158 158 159 159 161 164 170 176 182 186 190 196 203 208 210 214 219 223 225 227 228 230 231 233 235 237 239 240 241 240 232 221 221 229 235 241 245 250 251 249 243 242 245 249 254 256 256 255 254 253 252 251 250 252 253 255 256 254
155 154 155 156 158 158 159 162 165 164 163 160 159 158 159 163 168 174 180 187 191 195 199 203 205 209 215 222 226 229 230 230 230 231 233 235 237 239 241 244 245 242 236 233 237 241 245 249 252 253 253 251 251 251 252 254 256 257 257 257 256 255 254 252 252 253 254 256 256
150 151 154 158 159 161 163 167 167 164 161 158 158 159 161 167 173 180 187 194 198 201 202 201 205 212 219 224 228 230 232 232 231 231 232 235 237 240 242 244 245 245 243 242 245 247 249 252 253 255 255 254 253 253 254 255 256 257 258 259 259 259 259 259 259 258 259 259 260
147 151 156 161 163 165 166 168 165 161 158 157 159 162 166 172 179 186 193 200 204 207 207 208 215 221 226 229 231 233 234 234 232 231 233 236 240 242 245 248 249 248 246 245 248 251 253 254 256 257 257 256 255 254 255 256 257 258 259 259 260 260 261 262 262 262 263 263 263
149 155 161 166 166 166 165 165 162 159 157 158 160 164 169 176 183 191 197 203 208 213 216 219 223 228 232 234 236 238 238 238 237 235 235 236 241 245 248 252 253 252 250 248 250 252 254 255 257 257 258 257 257 256 256 257 258 259 259 259 259 259 260 260 261 262 263 263 263
154 160 166 169 166 164 162 161 159 158 158 159 162 166 171 179 187 194 201 207 213 219 223 227 230 233 236 239 241 243 244 243 242 241 241 241 244 248 251 255 256 255 254 252 253 254 254 255 256 257 258 258 258 257 257 257 258 259 259 259 259 258 258 258 259 260 261 262 262
160 164 168 167 162 159 158 157 156 156 157 159 162 167 173 181 191 199 205 211 218 224 230 234 237 240 243 245 247 249 250 249 247 245 245 246 248 251 254 255 256 256 256 256 256 256 256 256 257 258 258 259 259 258 258 258 259 259 260 261 261 260 260 259 258 258 258 259 260
163 165 166 162 158 156 155 155 154 154 156 158 162 168 176 187 199 207 213 217 222 229 236 240 243 247 250 252 253 254 255 256 255 253 252 252 253 255 257 258 258 258 257 257 256 256 257 257 258 259 259 260 259 259 259 259 260 260 261 262 262 262 262 261 260 258 256 255 256
164 164 161 157 155 154 154 153 152 152 155 159 165 175 187 200 209 216 221 223 229 235 241 245 248 251 252 254 254 254 254 256 257 258 258 257 258 259 260 261 261 260 259 258 258 257 257 258 258 259 260 260 259 258 258 259 261 262 262 263 264 264 264 264 263 260 256 251 251
163 161 158 154 153 152 151 149 150 152 157 167 179 191 203 213 220 222 224 226 235 242 247 250 251 251 251 251 252 252 252 253 256 258 259 260 260 261 262 263 264 263 263 262 261 261 260 260 259 259 259 259 258 258 258 259 261 262 264 264 265 265 265 265 265 262 257 248 245
159 157 153 150 148 147 146 145 149 157 168 183 198 208 216 223 230 230 227 225 239 249 254 255 254 253 252 251 253 254 254 254 255 257 259 261 261 262 263 265 266 266 265 265 264 263 263 262 261 260 258 257 257 257 258 260 261 262 264 265 267 267 266 267 267 265 261 252 248
151 149 146 142 140 140 142 146 156 169 187 207 221 229 233 235 240 239 235 232 243 252 258 261 260 259 258 256 258 259 259 258 257 258 260 262 263 264 265 267 267 267 266 265 265 264 263 262 261 260 258 257 256 256 258 259 262 263 265 266 268 269 269 268 267 267 264 260 258
135 133 130 128 128 132 139 153 170 189 211 235 252 258 259 256 254 250 246 241 246 251 256 260 262 263 264 263 264 265 265 265 263 263 263 265 266 266 266 267 267 267 267 265 264 263 262 261 261 259 257 256 254 255 257 259 262 263 265 266 268 270 271 269 268 267 267 265 263
110 106 103 103 105 109 120 156 209 241 260 270 274 277 278 276 269 261 255 250 250 252 256 259 263 265 266 266 267 269 270 270 269 268 267 267 268 267 267 266 266 266 265 264 263 261 260 259 259 258 256 254 252 252 254 258 261 263 265 266 268 270 272 272 270 269 267 267 266